Henderson, Nevada, United States (89009)
Lat: 36.04N, Lon: 114.98W
Wx Zone: NVZ020
Local Info
Past Weather Observations for Today

NOTE: This archive is for the closest National Weather Service station to Henderson. Information may differ from the station used for current weather conditions.

Click here for Long-term Archive

Time Weather Temperature Dewpoint Humidity Pressure Winds Precip Visibility
21:56
Clear
73°F / 23°C 41°F / 5°C 31% 29.89 in
(1012 mb)
SW 10.4 mph
(SW 17 kph)
- 10SM
20:56
Clear
72°F / 22°C 39°F / 4°C 31% 29.89 in
(1012 mb)
S 5.8 mph
(S 9 kph)
- 10SM
19:56
Clear
75°F / 24°C 39°F / 4°C 27% 29.89 in
(1012 mb)
S 6.9 mph
(S 11 kph)
- 10SM
18:56
Clear
79°F / 26°C 39°F / 4°C 24% 29.86 in
(1011 mb)
SSE 9.2 mph
(SSE 15 kph)
- 10SM
17:56
Clear
82°F / 28°C 43°F / 6°C 25% 29.86 in
(1011 mb)
SSE 12.7 mph
(SSE 20 kph)
- 10SM
16:56
Partly Cloudy
82°F / 28°C 43°F / 6°C 25% 29.83 in
(1010 mb)
SSE 11.5 mph
(SSE 19 kph)
- 10SM
15:56
Clear
86°F / 30°C 43°F / 6°C 22% 29.83 in
(1010 mb)
S 12.7 mph
(S 20 kph)
- 10SM
14:56
Clear
88°F / 31°C 43°F / 6°C 21% 29.86 in
(1011 mb)
ESE 9.2 mph
(ESE 15 kph)
- 10SM
13:56
Clear
88°F / 31°C 41°F / 5°C 19% 29.89 in
(1012 mb)
SE 6.9 mph
(SE 11 kph)
- 10SM
12:56
Clear
86°F / 30°C 43°F / 6°C 22% 29.92 in
(1013 mb)
NE 6.9 mph
(NE 11 kph)
- 10SM
11:56
Clear
82°F / 28°C 43°F / 6°C 25% 29.92 in
(1013 mb)
NNE 8.1 mph
(NNE 13 kph)
- 10SM
10:56
Clear
81°F / 27°C 41°F / 5°C 24% 29.95 in
(1014 mb)
NE 5.8 mph
(NE 9 kph)
- 10SM
09:56
Clear
79°F / 26°C 39°F / 4°C 24% 29.98 in
(1015 mb)
Calm - 10SM
08:56
Clear
73°F / 23°C 37°F / 3°C 27% 29.98 in
(1015 mb)
Calm - 10SM
07:56
Clear
72°F / 22°C 37°F / 3°C 29% 29.98 in
(1015 mb)
SSW 3.5 mph
(SSW 6 kph)
- 10SM
06:56
Clear
64°F / 18°C 37°F / 3°C 37% 29.98 in
(1015 mb)
SSE 3.5 mph
(SSE 6 kph)
- 10SM
05:56
Clear
63°F / 17°C 37°F / 3°C 39% 29.95 in
(1014 mb)
S 5.8 mph
(S 9 kph)
- 10SM
04:56
Clear
63°F / 17°C 37°F / 3°C 39% 29.95 in
(1014 mb)
S 9.2 mph
(S 15 kph)
- 10SM
03:56
Clear
64°F / 18°C 37°F / 3°C 37% 29.92 in
(1013 mb)
S 8.1 mph
(S 13 kph)
- 10SM
02:56
Clear
64°F / 18°C 36°F / 2°C 34% 29.92 in
(1013 mb)
S 9.2 mph
(S 15 kph)
- 10SM
01:56
Clear
66°F / 19°C 36°F / 2°C 32% 29.92 in
(1013 mb)
SSE 11.5 mph
(SSE 19 kph)
- 10SM
00:56
Clear
68°F / 20°C 36°F / 2°C 30% 29.92 in
(1013 mb)
SW 11.5 mph
(SW 19 kph)
- 10SM
Time Weather Temperature Dewpoint Humidity Pressure Winds Precip Visibility


Weather for websites

WeatherForYou.com, LLC is not responsible for any damages or problems caused by this service. Current weather conditions are obtained from the closest station including government and personal stations which may have varying degrees of accuracy. Weather forecasts are derived from the NOAA NDFD. Like all things, this site belongs to Jesus Christ... He just trusts me to maintain it. If you have any questions or comments email webmaster@weatherforyou.com

Copyright © 2014, WeatherForYou.com LLC. All rights reserved.